Weather in Staroye Surkino

Russia / Republic of Tatarstan     54°44′39″N   52°12′28″E
temp.,
°C
wind,
m/s
gust,
m/s
humid.,
%
clouds,
%
prec.,
mm/h
press.,
hPa
HPBL,
m
18 may, tue
tue1800:00+19ssw1145100 0.0 101711
03:00+17s114984 0.0 101711
06:00+21ne114299 0.0 101750
09:00+25ne34445 0.0 1017533
12:00+28e22395 0.0 10161335
15:00+28nne534057 0.0 10161720
18:00+24ne37545 0.0 1017202
21:00+18ene39656 0.0 1018185
19 may, wed
wed1900:00+16ene412695 0.0 1018241
03:00+14ene411795 0.0 1018225
06:00+16e610735 0.0 1018351
09:00+21e68570 0.0 1019818
12:00+24ese67450 0.0 10181541
15:00+25ese67410 0.0 10181875
18:00+22ese49565 0.0 1018276
21:00+17ese396399 0.0 1019147
20 may, thu
thu2000:00+15ese35645 0.0 101968
03:00+13ese337198 0.0 102037
06:00+16se51261100 0.0 1020409
09:00+21sse684565 0.0 10201077
12:00+23se783696 0.0 10191739
15:00+23se79350 0.0 10172094
18:00+20ese611505 0.0 1016396
21:00+15ese35611 0.0 101659
21 may, fri
fri2100:00+14ese3135981 0.0 1015301
03:00+15se5126220 0.1 1014489
06:00+16s5984100 0.0 1015521
09:00+19s676881 0.0 10161132
12:00+22sw7949100 0.9 10162140
15:00+21ssw685273 0.9 10161485
18:00+18sw48675 0.3 1017398
21:00+14sw35840 0.3 101971
22 may, sat
sat2200:00+13ssw338798 0.0 101926
03:00+12sw3389100 0.0 102139
06:00+16sw247588 0.0 1022249
09:00+20sw455844 0.0 1022858
12:00+23sw344793 0.0 10211539
15:00+24ssw4544100 0.0 10211728
18:00+21s366191 0.0 1020137
21:00+18sse386857 0.0 1019130